Location: Mizzole
(45.4833°N, 11.0500°E)
Time: 06:08:12
(UTC+00:00)

ATLAS 3B R/B - Pass Details

Date: 21 October 2019
Orbit: 1029 x 1166 km, 63.8° (Epoch: 10 November)

Event Time Altitude Azimuth Distance (km) Brightness Sun altitude
Rises 20:15:20 0° 247° (WSW) 3,814 6.0 -40.6°
Reaches altitude 10° 20:18:12 10° 256° (WSW) 2,849 5.3 -41.1°
Enters shadow 20:22:25 31° 288° (WNW) 1,730 4.1 -41.7°
